Location: Bullenkuhlen
(53.7689°N, 9.7495°E)
Time: 07:19:24
(UTC+00:00)

Cosmos 841 Rocket - Pass Details

Date: 09 April 2020
Orbit: 747 x 772 km, 74.0° (Epoch: 01 June)

Event Time Altitude Azimuth Distance (km) Brightness Sun altitude
Rises 20:19:29 0° 333° (NNW) 3,261 8.1 -17.2°
Reaches altitude 10° 20:21:53 10° 335° (NNW) 2,329 7.1 -17.5°
Maximum altitude 20:27:11 81° 63° (ENE) 789 3.5 -18.1°
Enters shadow 20:29:35 33° 146° (SSE) 1,266 4.1 -18.3°
